SFERA 2 (42913 NORAD) Tracking and Keplerian Element Data

This shows tracking and keplerian element data for the satellite.

Feedback or suggestion? Click here.




ElementValue
Catalog42913
NameSFERA 2
Epoch Orbit7034
Epoch Day312.87061861
Epoch Year2018
RAAN327.3889
Inclination51.6338
Eccentricity0.0006043
Argument of Perigee55.3589
Mean Anonmoly304.7809
Mean Motion15.98103271
Decay Rate0.0032092
L11 42913U 98067NC 18312.87061861 .00320920 53351-4 68394-3 0 9991
L22 42913 51.6338 327.3889 0006043 55.3589 304.7809 15.98103271 70347

Live tracking and technical data element details for SFERA 2 (NORAD 42913). SFERA 2 can be tracked NOW for your location showing map with azimuth and elevation plus other details from your city location.

Track the satellite on the map from your city or location and see movement details for azimuth, elevation, latitude, longitude, range, height, and movement on the map or in text.







IsCatalogInMostPopularTable: catalog: 42913, numindb: 157
Update: records affected: 1



GetName: 42913 SFERA 2

Hit Count: updated at: Mon, 12 Nov 2018 17:31:55 GMT